Météo par heure à Abasolo

Ce jour, 28 Novembre, Samedi

Heure Température Précipitation Vent Pression Humidité
00:00 +15°C° 0 mm 0 m/s 620 mmHg 51%
01:00 +15°C° 0 mm 0 m/s 620 mmHg 55%
02:00 +14°C° 0 mm 0 m/s 619 mmHg 58%
03:00 +13°C° 0 mm 0 m/s 619 mmHg 61%
04:00 +13°C° 0 mm 0 m/s 619 mmHg 64%
05:00 +12°C° 0 mm 0 m/s 620 mmHg 68%
06:00 +15°C° 0 mm 0 m/s 621 mmHg 61%
07:00 +17°C° 0 mm 0 m/s 622 mmHg 53%
08:00 +20°C° 0 mm 0 m/s 623 mmHg 46%
09:00 +23°C° 0 mm 0 m/s 624 mmHg 37%
10:00 +27°C° 0 mm 0 m/s 625 mmHg 29%
11:00 +30°C° 0 mm 0 m/s 626 mmHg 21%
12:00 +30°C° 0 mm 0 m/s 625 mmHg 19%
13:00 +33°C° 0 mm 1 m/s 624 mmHg 18%
14:00 +33°C° 0 mm 1 m/s 624 mmHg 16%
15:00 +30°C° 0 mm 1 m/s 623 mmHg 19%
16:00 +27°C° 0 mm 1 m/s 622 mmHg 22%
17:00 +25°C° 0 mm 1 m/s 621 mmHg 25%
18:00 +23°C° 0 mm 1 m/s 621 mmHg 29%
19:00 +22°C° 0 mm 1 m/s 621 mmHg 34%
20:00 +20°C° 0 mm 1 m/s 621 mmHg 38%
21:00 +19°C° 0 mm 1 m/s 621 mmHg 44%
22:00 +18°C° 0 mm 1 m/s 621 mmHg 49%
23:00 +16°C° 0 mm 1 m/s 620 mmHg 55%

Demain, 29 Novembre, Dimanche

Heure Température Précipitation Vent Pression Humidité
00:00 +16°C° 0 mm 1 m/s 620 mmHg 61%
01:00 +15°C° 0 mm 1 m/s 620 mmHg 67%
02:00 +15°C° 0 mm 1 m/s 619 mmHg 73%
03:00 +13°C° 0 mm 0 m/s 619 mmHg 77%
04:00 +13°C° 0 mm 0 m/s 619 mmHg 80%
05:00 +12°C° 0 mm 0 m/s 619 mmHg 84%
06:00 +15°C° 0 mm 0 m/s 620 mmHg 75%
07:00 +17°C° 0 mm 0 m/s 622 mmHg 65%
08:00 +19°C° 0 mm 0 m/s 623 mmHg 56%
09:00 +22°C° 0 mm 0 m/s 624 mmHg 46%
10:00 +28°C° 0 mm 1 m/s 624 mmHg 37%
11:00 +31°C° 0 mm 1 m/s 625 mmHg 28%
12:00 +31°C° 0 mm 1 m/s 624 mmHg 25%
13:00 +31°C° 0 mm 2 m/s 624 mmHg 23%
14:00 +32°C° 0 mm 2 m/s 623 mmHg 21%
15:00 +30°C° 0 mm 2 m/s 623 mmHg 24%
16:00 +28°C° 0 mm 2 m/s 622 mmHg 27%
17:00 +26°C° 0 mm 2 m/s 622 mmHg 30%
18:00 +24°C° 0 mm 2 m/s 622 mmHg 37%
19:00 +22°C° 0 mm 1 m/s 622 mmHg 45%
20:00 +20°C° 0 mm 1 m/s 622 mmHg 52%
21:00 +19°C° 0 mm 1 m/s 622 mmHg 58%
22:00 +18°C° 0 mm 1 m/s 622 mmHg 63%
23:00 +16°C° 0 mm 0 m/s 622 mmHg 69%

Après-demain, 30 Novembre, Lundi

Heure Température Précipitation Vent Pression Humidité
00:00 +16°C° 0 mm 1 m/s 621 mmHg 74%
01:00 +15°C° 0 mm 1 m/s 621 mmHg 79%
02:00 +15°C° 0 mm 1 m/s 621 mmHg 85%
03:00 +14°C° 0 mm 1 m/s 621 mmHg 88%
04:00 +14°C° 0 mm 1 m/s 621 mmHg 91%
05:00 +13°C° 0 mm 1 m/s 621 mmHg 94%
06:00 +15°C° 0 mm 1 m/s 622 mmHg 84%
07:00 +18°C° 0 mm 1 m/s 623 mmHg 74%
08:00 +20°C° 0 mm 1 m/s 624 mmHg 64%
09:00 +23°C° 0 mm 1 m/s 624 mmHg 54%
10:00 +26°C° 0 mm 1 m/s 625 mmHg 43%
11:00 +29°C° 0 mm 1 m/s 626 mmHg 33%
12:00 +29°C° 0 mm 1 m/s 625 mmHg 32%
13:00 +29°C° 0 mm 1 m/s 624 mmHg 32%
14:00 +28°C° 0 mm 1 m/s 623 mmHg 32%
15:00 +26°C° 0 mm 2 m/s 623 mmHg 38%
16:00 +24°C° 0 mm 2 m/s 622 mmHg 44%
17:00 +21°C° 0 mm 2 m/s 622 mmHg 50%
18:00 +19°C° 0 mm 2 m/s 622 mmHg 55%
19:00 +17°C° 0 mm 2 m/s 622 mmHg 60%
20:00 +14°C° 0 mm 3 m/s 622 mmHg 65%
21:00 +14°C° 0 mm 2 m/s 621 mmHg 69%
22:00 +13°C° 0 mm 2 m/s 621 mmHg 73%
23:00 +12°C° 0 mm 1 m/s 621 mmHg 77%

1 Décembre, Mardi

Heure Température Précipitation Vent Pression Humidité
00:00 +11°C° 0 mm 1 m/s 620 mmHg 80%
01:00 +10°C° 0 mm 1 m/s 620 mmHg 83%
02:00 +10°C° 0 mm 1 m/s 620 mmHg 85%
03:00 +9°C° 0 mm 1 m/s 619 mmHg 87%
04:00 +9°C° 0 mm 1 m/s 619 mmHg 89%
05:00 +9°C° 0 mm 1 m/s 619 mmHg 90%
06:00 +11°C° 0 mm 1 m/s 620 mmHg 81%
07:00 +13°C° 0 mm 1 m/s 621 mmHg 72%
08:00 +15°C° 0 mm 1 m/s 622 mmHg 62%
09:00 +19°C° 0 mm 1 m/s 623 mmHg 53%
10:00 +21°C° 0 mm 2 m/s 623 mmHg 44%
11:00 +26°C° 0 mm 2 m/s 624 mmHg 35%
12:00 +27°C° 0 mm 3 m/s 623 mmHg 30%
13:00 +27°C° 0 mm 4 m/s 622 mmHg 25%
14:00 +28°C° 0 mm 5 m/s 622 mmHg 20%
15:00 +26°C° 0 mm 4 m/s 621 mmHg 25%
16:00 +23°C° 0 mm 4 m/s 621 mmHg 29%
17:00 +21°C° 0 mm 3 m/s 620 mmHg 33%
18:00 +19°C° 0 mm 3 m/s 620 mmHg 41%
19:00 +17°C° 0 mm 2 m/s 620 mmHg 48%
20:00 +15°C° 0 mm 2 m/s 620 mmHg 56%
21:00 +14°C° 0 mm 1 m/s 620 mmHg 61%
22:00 +13°C° 0 mm 1 m/s 619 mmHg 67%
23:00 +13°C° 0 mm 1 m/s 619 mmHg 73%

2 Décembre, Mercredi

Heure Température Précipitation Vent Pression Humidité
00:00 +12°C° 0 mm 1 m/s 619 mmHg 77%
01:00 +11°C° 0 mm 1 m/s 618 mmHg 81%
02:00 +11°C° 0 mm 1 m/s 618 mmHg 86%
03:00 +10°C° 0 mm 1 m/s 618 mmHg 87%
04:00 +10°C° 0 mm 1 m/s 618 mmHg 88%
05:00 +8°C° 0 mm 0 m/s 618 mmHg 89%
06:00 +11°C° 0 mm 0 m/s 619 mmHg 79%
07:00 +14°C° 0 mm 1 m/s 620 mmHg 69%
08:00 +16°C° 0 mm 1 m/s 622 mmHg 59%
09:00 +20°C° 0 mm 1 m/s 622 mmHg 47%
10:00 +23°C° 0 mm 2 m/s 623 mmHg 34%
11:00 +26°C° 0 mm 2 m/s 623 mmHg 22%
12:00 +26°C° 0 mm 3 m/s 623 mmHg 20%
13:00 +27°C° 0 mm 4 m/s 622 mmHg 18%
14:00 +27°C° 0 mm 4 m/s 622 mmHg 17%
15:00 +25°C° 0 mm 4 m/s 621 mmHg 21%
16:00 +22°C° 0 mm 3 m/s 621 mmHg 26%
17:00 +20°C° 0 mm 2 m/s 620 mmHg 31%
18:00 +18°C° 0 mm 2 m/s 620 mmHg 38%
19:00 +16°C° 0 mm 2 m/s 620 mmHg 46%
20:00 +14°C° 0 mm 1 m/s 620 mmHg 53%
21:00 +13°C° 0 mm 1 m/s 620 mmHg 57%
22:00 +12°C° 0 mm 1 m/s 620 mmHg 61%
23:00 +11°C° 0 mm 0 m/s 620 mmHg 66%

3 Décembre, Jeudi

Heure Température Précipitation Vent Pression Humidité
00:00 +10°C° 0 mm 0 m/s 619 mmHg 69%
01:00 +9°C° 0 mm 0 m/s 619 mmHg 73%
02:00 +9°C° 0 mm 0 m/s 618 mmHg 77%
03:00 +9°C° 0 mm 0 m/s 618 mmHg 79%
04:00 +8°C° 0 mm 0 m/s 618 mmHg 81%
05:00 +8°C° 0 mm 0 m/s 618 mmHg 83%
06:00 +10°C° 0 mm 0 m/s 619 mmHg 74%
07:00 +12°C° 0 mm 0 m/s 621 mmHg 65%
08:00 +16°C° 0 mm 1 m/s 622 mmHg 56%
09:00 +20°C° 0 mm 1 m/s 623 mmHg 46%
10:00 +23°C° 0 mm 1 m/s 624 mmHg 35%
11:00 +27°C° 0 mm 1 m/s 624 mmHg 25%
12:00 +27°C° 0 mm 2 m/s 624 mmHg 22%
13:00 +27°C° 0 mm 2 m/s 623 mmHg 19%
14:00 +28°C° 0 mm 3 m/s 623 mmHg 16%
15:00 +25°C° 0 mm 3 m/s 622 mmHg 20%
16:00 +23°C° 0 mm 2 m/s 621 mmHg 25%
17:00 +20°C° 0 mm 2 m/s 621 mmHg 29%
18:00 +18°C° 0 mm 2 m/s 621 mmHg 37%
19:00 +16°C° 0 mm 2 m/s 621 mmHg 46%
20:00 +14°C° 0 mm 1 m/s 621 mmHg 54%
21:00 +13°C° 0 mm 1 m/s 620 mmHg 59%
22:00 +13°C° 0 mm 1 m/s 620 mmHg 64%
23:00 +11°C° 0 mm 0 m/s 620 mmHg 69%
Voir plus

Nous avons besoin de votre consentement

Meteoprog et ses fournisseurs de services peuvent stocker et accéder à des données personnelles telles que des cookies, des identifiants d'appareils ou d'autres technologies similaires sur votre appareil et traiter ces données pour personnaliser le contenu et les publicités, ainsi que pour fournir des fonctionnalités de médias sociaux et analyser le trafic.

  • Stocker et/ou accéder à des informations sur votre appareil

    Des cookies, des identifiants d'appareils ou d'autres informations peuvent être stockés ou accessibles sur votre appareil aux fins indiquées ci-dessus.

  • Annonces et contenus personnalisés, mesure des annonces et des contenus, connaissance de l'audience et développement de produits

    Les annonces et le contenu peuvent être personnalisés en fonction d'un profil. D'autres données peuvent être ajoutées pour mieux personnaliser les annonces et le contenu. Les performances des publicités et du contenu peuvent être mesurées. Il est possible d'obtenir des informations sur le public qui a vu les publicités et le contenu. Ces données peuvent être utilisées pour développer ou améliorer l'expérience de l'utilisateur, les systèmes et les logiciels.

En cliquant sur "J'accepte", vous autorisez l'utilisation de cookies, des identifiants d'appareils, des balises web ou d'autres technologies similaires. Vos paramètres peuvent être modifiés dans le navigateur de votre appareil.

Dans certains cas, des intérêts légitimes peuvent être invoqués plutôt qu'un consentement. Vous pouvez en savoir plus à ce sujet dans notre Politique de confidentialité et de cookies.